Regional Weather Roundup
Issued by NWS Raleigh/Durham, NC

Home | Current Version | Previous Version | Text Only | Print | Product List | Glossary On
Versions: 1 2 3 4 5 6 7 8 9 10 11 12 13 14 15 16 17 18 19 20 21 22 23 24 25 26 27 28
000
ASUS42 KRAH 271910
RWRRAH
NORTH CAROLINA WEATHER ROUNDUP
NATIONAL WEATHER SERVICE RALEIGH NC
300 PM EDT THU APR 27 2017

NOTE: "FAIR" INDICATES FEW OR NO CLOUDS BELOW 12,000 FEET WITH NO
SIGNIFICANT WEATHER AND/OR OBSTRUCTIONS TO VISIBILITY.

NCZ001-053-055-056-065-067-272000-
WESTERN NORTH CAROLINA

CITY           SKY/WX    TMP DP  RH WIND       PRES   REMARKS
ASHEVILLE      LGT RAIN  60  57  89 SE5       29.88S FOG
JEFFERSON      CLOUDY    59  53  79 S5        29.91S
HICKORY        CLOUDY    65  60  84 S3        29.87F
RUTHERFORDTON  LGT RAIN  62  61  96 CALM      29.88F
MOUNT AIRY     NOT AVBL
BOONE          CLOUDY    57  55  94 SE6       29.92F FOG
$$

NCZ021-022-025-041-071-084-088-272000-
CENTRAL NORTH CAROLINA

CITY           SKY/WX    TMP DP  RH WIND       PRES   REMARKS
CHARLOTTE      CLOUDY    74  58  57 S12       29.88S
GREENSBORO     CLOUDY    74  56  53 S15       29.87S
WINSTON-SALEM  CLOUDY    74  51  44 S8G20     29.88S
RALEIGH-DURHAM PTSUNNY   81  57  43 S12       29.88S
FORT BRAGG     MOSUNNY   81  56  41 SW13G18   29.87F
FAYETTEVILLE   MOSUNNY   83  57  41 S14       29.88S
BURLINGTON     LGT RAIN  79  55  43 S15       29.87S
LAURINBURG     CLOUDY    78  60  53 W9        29.90S
$$

NCZ011-015-027-028-043-044-047-080-103-272000-
NORTHEASTERN NORTH CAROLINA

CITY           SKY/WX    TMP DP  RH WIND       PRES   REMARKS
ROCKY MT-WILSO MOSUNNY   81  59  47 SW14G22   29.88S
GREENVILLE     SUNNY     82  61  47 SW16G23   29.91S
WASHINGTON     MOSUNNY   82  61  48 SW14      29.88S
ELIZABETH CITY NOT AVBL
MANTEO         SUNNY     76  67  73 S16G22    29.91S
CAPE HATTERAS  SUNNY     79  65  62 SW9       29.93F HAZE
$$

NCZ078-087-090-091-093-098-101-272000-
SOUTHEASTERN NORTH CAROLINA

CITY           SKY/WX    TMP DP  RH WIND       PRES   REMARKS
LUMBERTON      CLOUDY    79  63  57 SW12      29.89S
GOLDSBORO      PTSUNNY   83  57  41 S12       29.87F
KINSTON        MOSUNNY   82  57  42 SW12G17   29.90S
KENANSVILLE    MOSUNNY   84  57  39 S7        29.89S
NEW BERN       MOSUNNY   83  61  47 SW16G23   29.90S
CHERRY POINT   NOT AVBL
BEAUFORT       SUNNY     77  69  76 S16       29.93S
JACKSONVILLE   NOT AVBL
WILMINGTON     MOSUNNY   82  61  48 SW21      29.91S
$$





USA.gov is the U.S. government's official web portal to all federal, state and local government web resources and services.